Date String (YYYY-MM-DD hh:mm:ss) UTC,Instrument flags,absolute air pressure of the measurement (hPa),sample flow rate (lpm),inlet stack bypass flow (lpm),air temperature of the measurement (°C),ambient temperature measured by the external sensor (°C),aerosol sample conditioner tube jacket temperature (°C),OPC LED temperature (°C),internal box temperature (°C),relative humidity of the measurement (%),span deviation,mass concentration of particles derived from Lorenz-Mie calculation of OPC scattering (μg/m³),mass concentration of particles derived from Lorenz-Mie calculation of OPC scattering (μg/m³),mass concentration of particles derived from Lorenz-Mie calculation of OPC scattering (μg/m³)
DateTimeUTC,F1_M11,P_M11,Q1_M11,Q2_M11,T1_M11,T2_M11,T3_M11,T4_M11,T5_M11,U1_M11,ZSPAN_M11,X0_M11,X2_M11,X1_M11
2023-07-31 11:00:00,SystemResetWarning,0835.7,5.00,000.00,029.2,027.3,000.0,037.7,030.8,30.6,0000.0,0018.64,0006.01,0004.91
2023-07-31 11:01:00,SystemResetWarning,0835.8,5.02,000.00,029.2,027.6,000.0,037.7,030.9,30.4,0000.0,0018.53,0006.07,0004.91
2023-07-31 11:02:00,SystemResetWarning,0835.7,4.99,000.00,029.3,027.8,000.0,037.7,030.9,30.3,0000.0,0017.39,0006.08,0004.92
2023-07-31 11:03:00,SystemResetWarning,0835.7,4.99,000.00,029.3,027.9,000.0,037.7,031.0,29.6,0000.0,0017.12,0006.06,0004.93
2023-07-31 11:04:00,SystemResetWarning,0835.8,5.00,000.00,029.3,028.1,000.0,037.7,031.0,29.5,0000.0,0016.27,0006.05,0004.95
2023-07-31 11:05:00,SystemResetWarning,0835.9,5.01,000.00,029.4,028.2,000.0,037.7,031.1,29.7,0000.0,0016.39,0006.02,0004.95
2023-07-31 11:06:00,SystemResetWarning,0835.9,5.01,000.00,029.4,028.3,000.0,037.8,031.1,29.8,0000.0,0015.62,0005.96,0004.94
2023-07-31 11:07:00,SystemResetWarning,0835.9,5.00,000.00,029.4,028.4,000.0,037.8,031.1,29.9,0000.0,0015.94,0005.92,0004.95
2023-07-31 11:08:00,SystemResetWarning,0836.0,4.99,000.00,029.5,028.4,000.0,037.8,031.2,29.8,0000.0,0016.39,0005.93,0004.95
2023-07-31 11:09:00,SystemResetWarning,0835.9,4.97,000.00,029.5,027.0,000.0,037.7,031.0,29.8,0000.0,0015.75,0005.95,0004.96
2023-07-31 11:10:00,SystemResetWarning,0835.9,5.01,000.00,029.4,025.7,000.0,037.6,030.8,30.0,0000.0,0015.52,0005.96,0004.97
2023-07-31 11:11:00,SystemResetWarning,0836.0,5.01,000.00,029.3,025.6,000.0,037.6,030.6,30.1,0000.0,0015.02,0005.95,0004.98
2023-07-31 11:12:00,SystemResetWarning,0836.0,5.00,000.00,029.3,025.9,000.0,037.6,030.5,30.3,0000.0,0014.40,0005.90,0004.97
2023-07-31 11:13:00,SystemResetWarning,0836.1,5.00,000.00,029.2,026.2,000.0,037.7,030.6,30.4,0000.0,0013.68,0005.92,0004.96
2023-07-31 11:14:00,SystemResetWarning,0836.1,5.00,000.00,029.2,026.6,000.0,037.7,030.7,30.4,0000.0,0013.33,0005.90,0004.92
2023-07-31 11:15:00,SystemResetWarning,0836.1,5.01,000.00,029.2,026.9,000.0,037.7,030.8,30.4,0000.0,0013.55,0005.87,0004.88
2023-07-31 11:16:00,SystemResetWarning,0836.2,4.99,000.00,029.3,027.2,000.0,037.7,030.8,30.4,0000.0,0013.45,0005.86,0004.85
2023-07-31 11:17:00,SystemResetWarning,0836.2,4.99,000.00,029.3,027.5,000.0,037.7,030.9,30.3,0000.0,0013.90,0005.84,0004.81
2023-07-31 11:18:00,SystemResetWarning,0836.2,5.01,000.00,029.3,027.7,000.0,037.7,030.9,30.4,0000.0,0012.75,0005.77,0004.76
2023-07-31 11:19:00,SystemResetWarning,0836.2,5.01,000.00,029.3,027.9,000.0,037.7,031.0,30.4,0000.0,0012.21,0005.68,0004.71
2023-07-31 11:20:00,SystemResetWarning,0836.2,5.01,000.00,029.4,028.0,000.0,037.8,031.0,30.5,0000.0,0011.96,0005.57,0004.65
2023-07-31 11:21:00,SystemResetWarning,0836.2,5.00,000.00,029.4,028.1,000.0,037.8,031.0,30.7,0000.0,0011.80,0005.50,0004.59
2023-07-31 11:22:00,SystemResetWarning,0836.3,4.99,000.00,029.4,028.3,000.0,037.8,031.1,31.0,0000.0,0011.58,0005.44,0004.53
2023-07-31 11:23:00,SystemResetWarning,0836.3,4.99,000.00,029.5,028.3,000.0,037.8,031.1,31.0,0000.0,0011.44,0005.34,0004.46
2023-07-31 11:24:00,SystemResetWarning,0836.4,5.00,000.00,029.5,028.4,000.0,037.8,031.2,30.9,0000.0,0011.64,0005.21,0004.40
2023-07-31 11:25:00,SystemResetWarning,0836.4,4.99,000.00,029.5,028.5,000.0,037.9,031.2,31.2,0000.0,0012.06,0005.17,0004.36
2023-07-31 11:26:00,SystemResetWarning,0836.4,5.00,000.00,029.6,027.2,000.0,037.8,031.1,31.9,0000.0,0012.82,0005.16,0004.33
2023-07-31 11:27:00,SystemResetWarning,0836.4,5.00,000.00,029.5,025.9,000.0,037.7,030.9,31.9,0000.0,0012.62,0005.11,0004.29
2023-07-31 11:28:00,SystemResetWarning,0836.4,5.01,000.00,029.4,025.7,000.0,037.7,030.7,31.9,0000.0,0011.93,0005.03,0004.26
2023-07-31 11:29:00,SystemResetWarning,0836.4,5.01,000.00,029.3,025.9,000.0,037.7,030.6,32.6,0000.0,0011.73,0005.00,0004.24
2023-07-31 11:30:00,SystemResetWarning,0836.4,4.99,000.00,029.3,026.3,000.0,037.7,030.7,33.1,0000.0,0011.31,0004.98,0004.22
2023-07-31 11:31:00,SystemResetWarning,0836.4,4.99,000.00,029.3,026.7,000.0,037.7,030.7,33.5,0000.0,0011.38,0004.98,0004.21
2023-07-31 11:32:00,SystemResetWarning,0836.4,5.00,000.00,029.3,027.0,000.0,037.7,030.8,33.4,0000.0,0011.71,0004.97,0004.21
2023-07-31 11:33:00,SystemResetWarning,0836.5,5.00,000.00,029.3,027.3,000.0,037.8,030.9,33.4,0000.0,0011.57,0004.95,0004.21
2023-07-31 11:34:00,SystemResetWarning,0836.5,5.01,000.00,029.3,027.5,000.0,037.8,030.9,33.6,0000.0,0011.75,0005.00,0004.23
2023-07-31 11:35:00,SystemResetWarning,0836.6,5.01,000.00,029.3,027.7,000.0,037.8,031.0,33.6,0000.0,0012.07,0005.07,0004.23
2023-07-31 11:36:00,SystemResetWarning,0836.6,4.99,000.00,029.4,027.9,000.0,037.8,031.0,33.8,0000.0,0011.53,0005.07,0004.22
2023-07-31 11:37:00,SystemResetWarning,0836.6,4.99,000.00,029.4,028.0,000.0,037.8,031.0,34.0,0000.0,0010.40,0005.03,0004.20
2023-07-31 11:38:00,SystemResetWarning,0836.6,5.00,000.00,029.4,028.2,000.0,037.8,031.1,34.3,0000.0,0010.41,0005.01,0004.21
2023-07-31 11:39:00,SystemResetWarning,0836.7,5.01,000.00,029.5,028.3,000.0,037.8,031.1,34.5,0000.0,0010.44,0005.01,0004.21
2023-07-31 11:40:00,SystemResetWarning,0836.6,5.00,000.00,029.5,028.4,000.0,037.9,031.2,34.6,0000.0,0010.46,0005.03,0004.20
2023-07-31 11:41:00,SystemResetWarning,0836.7,4.99,000.00,029.5,028.4,000.0,037.9,031.2,34.8,0000.0,0010.71,0005.12,0004.22
2023-07-31 11:42:00,SystemResetWarning,0836.6,4.98,000.00,029.6,028.5,000.0,037.9,031.3,35.2,0000.0,0010.89,0005.15,0004.24
2023-07-31 11:43:00,SystemResetWarning,0836.6,5.03,000.00,029.7,027.3,000.0,037.8,031.2,35.1,0000.0,0010.91,0005.19,0004.25
2023-07-31 11:44:00,SystemResetWarning,0836.6,4.98,000.00,029.9,025.8,000.0,037.7,031.1,34.7,0000.0,0011.08,0005.26,0004.26
2023-07-31 11:45:00,SystemResetWarning,0836.6,4.99,000.00,030.0,025.5,000.0,037.7,030.9,35.0,0000.0,0010.99,0005.26,0004.26
2023-07-31 11:46:00,SystemResetWarning,0836.7,5.02,000.00,030.0,025.8,000.0,037.8,030.8,35.3,0000.0,0010.36,0005.23,0004.27
2023-07-31 11:47:00,SystemResetWarning,0836.6,5.01,000.00,030.3,026.2,000.0,037.9,030.9,35.1,0000.0,0010.03,0005.24,0004.30
2023-07-31 11:48:00,SystemResetWarning,0836.7,4.98,000.00,030.6,026.6,000.0,038.0,031.1,34.5,0000.0,0010.29,0005.27,0004.33
2023-07-31 11:49:00,SystemResetWarning,0836.7,5.00,000.00,030.8,026.9,000.0,038.0,031.2,34.1,0000.0,0010.71,0005.33,0004.36
2023-07-31 11:50:00,SystemResetWarning,0836.7,5.01,000.00,030.9,027.2,000.0,038.2,031.2,33.7,0000.0,0010.84,0005.41,0004.38
2023-07-31 11:51:00,SystemResetWarning,0836.8,5.00,000.00,031.0,027.5,000.0,038.3,031.3,33.5,0000.0,0010.93,0005.46,0004.40
2023-07-31 11:52:00,SystemResetWarning,0836.8,5.00,000.00,031.0,027.7,000.0,038.4,031.3,33.5,0000.0,0010.99,0005.48,0004.41
2023-07-31 11:53:00,SystemResetWarning,0836.8,5.00,000.00,031.1,027.9,000.0,038.5,031.4,33.4,0000.0,0010.77,0005.50,0004.43
2023-07-31 11:54:00,SystemResetWarning,0836.8,4.99,000.00,031.1,028.1,000.0,038.6,031.4,33.5,0000.0,0010.50,0005.54,0004.45
2023-07-31 11:55:00,SystemResetWarning,0836.8,5.00,000.00,031.1,028.2,000.0,038.7,031.5,33.5,0000.0,0010.58,0005.58,0004.47
2023-07-31 11:56:00,SystemResetWarning,0836.8,5.01,000.00,031.1,028.3,000.0,038.8,031.5,33.8,0000.0,0010.63,0005.62,0004.50
2023-07-31 11:57:00,SystemResetWarning,0836.8,5.01,000.00,031.1,028.4,000.0,038.8,031.5,34.1,0000.0,0011.38,0005.70,0004.53
2023-07-31 11:58:00,SystemResetWarning,0836.8,5.00,000.00,031.2,028.5,000.0,038.9,031.6,34.3,0000.0,0012.08,0005.83,0004.56
2023-07-31 11:59:00,SystemResetWarning,0836.8,4.99,000.00,031.2,028.2,000.0,038.9,031.6,34.6,0000.0,0012.36,0005.94,0004.58
